This is the latest recevied weather packets stored in our database for station/object KC5DAQ-29. If no packets are shown the sender has not sent any weather packets the latest 1 day(s).
| Time | Temp. | Humidity | Pressure | Rain* | Wind** | Luminosity | Snow |
|---|---|---|---|---|---|---|---|
| 1778085723 | 26.67° C | 100% | 1008.3 hPa | 0 mm | - | 76 W/m² | - |
| 1778085422 | 26.67° C | 100% | 1008.2 hPa | 0 mm | - | 102 W/m² | - |
| 1778085183 | 26.67° C | 100% | 1008.2 hPa | 0 mm | - | 299 W/m² | - |
| 1778085123 | 26.11° C | 100% | 1008.2 hPa | 0 mm | - | 299 W/m² | - |
| 1778084164 | 26.11° C | 100% | 1007.9 hPa | 0 mm | - | 148 W/m² | - |
| 1778083924 | 26.11° C | 100% | 1008 hPa | 0 mm | - | 113 W/m² | - |
| 1778083863 | 26.11° C | 100% | 1008 hPa | 0 mm | - | 53 W/m² | - |
| 1778083743 | 26.67° C | 100% | 1008 hPa | 0 mm | - | 53 W/m² | - |
| 1778083682 | 26.67° C | 100% | 1008.2 hPa | 0 mm | - | 53 W/m² | - |
| 1778083504 | 26.67° C | 100% | 1008.1 hPa | 0 mm | - | 53 W/m² | - |
| 1778083143 | 26.11° C | 100% | 1008 hPa | 0 mm | - | 148 W/m² | - |
| 1778083082 | 26.11° C | 100% | 1007.9 hPa | 0 mm | - | 148 W/m² | - |
| 1778082965 | 26.11° C | 100% | 1007.9 hPa | 0 mm | - | 153 W/m² | - |
| 1778082543 | 26.11° C | 100% | 1007.9 hPa | 0 mm | - | 139 W/m² | - |
| 1778082182 | 26.11° C | 100% | 1007.8 hPa | 0 mm | - | 158 W/m² | - |
| 1778081943 | 26.11° C | 100% | 1007.8 hPa | 0 mm | - | 211 W/m² | - |
| 1778081882 | 26.11° C | 100% | 1007.8 hPa | 0 mm | - | 211 W/m² | - |
| 1778081823 | 26.11° C | 100% | 1007.7 hPa | 0 mm | - | 211 W/m² | - |
| 1778081446 | 26.11° C | 100% | 1007.7 hPa | 0 mm | - | 121 W/m² | - |
| 1778081266 | 26.11° C | 100% | 1007.8 hPa | 0 mm | - | 106 W/m² | - |
| 1778081206 | 26.11° C | 100% | 1007.7 hPa | 0 mm | - | 109 W/m² | - |
| 1778080904 | 26.11° C | 100% | 1007.6 hPa | 0 mm | - | 84 W/m² | - |
| 1778080846 | 26.11° C | 100% | 1007.6 hPa | 0 mm | - | 84 W/m² | - |
| 1778080605 | 26.11° C | 100% | 1007.5 hPa | 0 mm | - | 120 W/m² | - |
| 1778080546 | 26.11° C | 100% | 1007.5 hPa | 0 mm | - | 120 W/m² | - |
* Rain latest hour (hover to see other rain measurements)
** Current wind speed in m/s (hover to see current wind gust speed)